Regional Weather Roundup
Issued by NWS Boston, MA

Home | Current Version | Previous Version | Text Only | Print | Product List | Glossary On
Versions: 1 2 3 4 5 6 7 8 9 10 11 12 13 14 15 16 17 18 19 20 21 22 23 24 25 26 27 28 29 30 31 32 33 34 35 36 37 38 39 40 41 42 43 44 45 46 47 48
000
ASUS41 KBOX 312010
RWRBOX

REGIONAL WEATHER ROUNDUP
NATIONAL WEATHER SERVICE TAUNTON MA
400 PM EDT FRI JUL 31 2015

NOTE:  "FAIR" INDICATES FEW OR NO CLOUDS BELOW 12,000 FEET WITH NO
SIGNIFICANT WEATHER AND/OR OBSTRUCTIONS TO VISIBILITY.  THE FOLLOWING
OBSERVATION LOCATIONS DO NOT REPORT PRESENT WEATHER...PROVINCETOWN...
SMITHFIELD...BLOCK ISLAND...KEENE...AND OXFORD.

MAZALL-312100-
EASTERN MASSACHUSETTS

CITY           SKY/WX    TMP DP  RH WIND       PRES   REMARKS
BOSTON         MOSUNNY   88  56  33 W18G28    29.75S
BEVERLY        PTSUNNY   87  54  32 NW16G22   29.73F
LAWRENCE       PTSUNNY   86  55  34 W12       29.76S
BEDFORD        MOSUNNY   86  52  30 W17G24    29.75S
BLUE HILL        N/A     84  55  36 W15G29    29.77S
NORWOOD        MOSUNNY   84  56  38 W9G24     29.75S
MARSHFIELD     SUNNY     90  57  33 W9G17     29.75F
PLYMOUTH       SUNNY     88  56  33 W14       29.76F
TAUNTON        SUNNY     88  57  34 W9        29.75F
NEW BEDFORD    SUNNY     87  58  37 W14G21    29.76F
$$

MAZALL-312100-
CAPE COD AND THE ISLANDS

CITY           SKY/WX    TMP DP  RH WIND       PRES   REMARKS
FALMOUTH       SUNNY     84  63  48 SW20      29.77S
HYANNIS        SUNNY     86  63  45 SW18G26   29.75S
CHATHAM        SUNNY     85  68  56 SW8G20    29.77F
PROVINCETOWN   SUNNY     88  57  35 W12       29.75S
NANTUCKET      SUNNY     82  67  60 W14       29.79F
MARTHAS VNYRD  SUNNY     84  59  42 SW16      29.78F
$$

MAZALL-312100-
CENTRAL AND WESTERN MASSACHUSETTS

CITY           SKY/WX    TMP DP  RH WIND       PRES   REMARKS
WORCESTER      MOSUNNY   81  53  37 W20       29.82S
FITCHBURG      SUNNY     85  52  32 W15G25    29.78F
ORANGE         MOSUNNY   83  55  38 W10G18    29.80S
SPRINGFIELD    SUNNY     86  53  32 W14G22    29.78S
WESTFIELD      SUNNY     86  53  32 W14       29.80S
NORTH ADAMS    SUNNY     80  56  43 W8G17     29.82S
PITTSFIELD     MOSUNNY   80  53  39 W14       29.84F
$$

RIZALL-312100-
RHODE ISLAND

CITY           SKY/WX    TMP DP  RH WIND       PRES   REMARKS
PROVIDENCE     MOSUNNY   88  57  34 W13       29.78S
NEWPORT        SUNNY     82  62  50 SW10      29.78F
BLOCK ISLAND     N/A     82  66  57 SW14G21   29.82S
SMITHFIELD     MOSUNNY   82  57  42 W8G17     29.79F
WESTERLY       SUNNY     83  61  47 SW15      29.80F
$$

CTZALL-312100-
CONNECTICUT

CITY           SKY/WX    TMP DP  RH WIND       PRES   REMARKS
BRADLEY INTL   MOSUNNY   88  54  31 W13       29.78F
HARTFORD       MOSUNNY   88  55  32 W14G21    29.78F
BRIDGEPORT     MOSUNNY   89  57  33 SW9       29.80F
DANBURY        SUNNY     85  54  34 W9        29.83F
GROTON         SUNNY     83  64  52 SW13      29.79F
NEW HAVEN      MOSUNNY   84  64  50 S10       29.80F
CHESTER        NOT AVBL
MERIDEN        SUNNY     89  54  30 NW9       29.79F
WILLIMANTIC    MOSUNNY   87  55  33 NW10      29.79F
OXFORD         MOSUNNY   82  55  39 NW8       29.86S
$$

MEZ002-015-021-024-NHZ003-005-008-011-012-014-VTZ005-008-312100-
NORTHERN NEW ENGLAND

CITY           SKY/WX    TMP DP  RH WIND       PRES   REMARKS
PORTLAND ME    MOSUNNY   83  56  39 W16       29.71S
BANGOR ME      MOSUNNY   83  55  38 W14G21    29.66F
CONCORD NH     MOSUNNY   84  51  31 NW13G22   29.75F
MANCHESTER NH  MOSUNNY   85  54  34 W14       29.74S
NASHUA NH      MOSUNNY   85  57  38 NW10G20   29.76S
PORTSMOUTH NH  PTSUNNY   86  55  34 W10G20    29.71S
JAFFREY NH     MOSUNNY   81  55  40 NW9G18    29.82S
KEENE NH       MOSUNNY   82  55  39 W13       29.79S
BURLINGTON VT  CLOUDY    82  54  37 VRB5      29.75F
MT. WASHINGTON FOG       48  48 100 W41         N/A  VSB 0
$$

NYZ052-076-312100-
EASTERN NEW YORK

CITY           SKY/WX    TMP DP  RH WIND       PRES   REMARKS
ALBANY         MOSUNNY   84  52  33 NW16      29.81F
NEW YORK CITY  MOSUNNY   90  52  27 W12G20    29.81F
$$

ANZALL-312100-
MARINE OBSERVATIONS

STATION/POSITION TIME  TEMP    WIND        PRES    VSBY  WAVE
                       AIR SEA DIR/SP/G                  HT/PER
                 (UTC) (F)     (DEG/KT/KT) (MB)    (MI)  (FT/S)
BOSTON BUOY      1950   77 71  260/  6/  8 1007.6R         2/ 9
BUZZARDS BAY     1900          220/ 16/ 16 1009.5F
NANTUCKET SOUND  1950   75 74  240/ 16/ 17 1007.8F         1/ 3
MASS BAY-STELLWA 1904   76 69  240/  8/ 10   N/A    1 7/8
ISLE OF SHOALS   1900   80     260/ 14/ 15 1006.1F
S OF BLOCK IS    1908      74                N/A           4/ 7
$$

......................KEY.........................
  SKY/WX - SKY CONDITION/PRESENT WEATHER
  TMP    - TEMPERATURE IN FAHRENHEIT
  DWPT   - DEWPOINT IN FAHRENHEIT
  RH     - RELATIVE HUMIDITY IN PERCENT
  WIND   - DIRECTION AND SPEED IN MPH
  PRES   - MEAN SEA LEVEL PRESSURE IN INCHES OF HG
  WCI    - WIND CHILL INDEX
  VSB    - VISIBILITY IN MILES
  HX     - HEAT INDEX
  TC     - TEMPERATURE IN CELSIUS
  VRB    - VARIABLE WIND DIRECTION
  N/A    - NOT AVAILABLE


USA.gov is the U.S. government's official web portal to all federal, state and local government web resources and services.